Time,TemperatureF,DewpointF,PressureIn,WindDirection,WindDirectionDegrees,WindSpeedMPH,WindSpeedGustMPH,Humidity,HourlyPrecipIn,Conditions,Clouds,dailyrainin,SoftwareType,DateUTC
2013-05-14 00:01:00,59.3,57.0,30.21,WSW,238,0.0,-999.0,91,-99.99,,,0.00,weatherlink.com 1.10,2013-05-14 05:01:00,
2013-05-14 00:16:00,59.0,57.0,30.21,WSW,238,0.0,-999.0,92,-99.99,,,0.00,weatherlink.com 1.10,2013-05-14 05:16:00,
2013-05-14 00:31:00,58.7,56.0,30.21,WSW,238,0.0,-999.0,91,-99.99,,,0.00,weatherlink.com 1.10,2013-05-14 05:31:00,
2013-05-14 00:46:00,58.4,56.0,30.21,WSW,238,0.0,-999.0,92,-99.99,,,0.00,weatherlink.com 1.10,2013-05-14 05:46:00,
2013-05-14 01:01:00,58.1,56.0,30.20,WSW,238,0.0,-999.0,92,-99.99,,,0.00,weatherlink.com 1.10,2013-05-14 06:01:00,
2013-05-14 01:16:00,57.8,56.0,30.21,WSW,238,0.0,-999.0,93,-99.99,,,0.00,weatherlink.com 1.10,2013-05-14 06:16:00,
2013-05-14 01:31:00,57.6,56.0,30.20,WSW,238,0.0,-999.0,93,-99.99,,,0.00,weatherlink.com 1.10,2013-05-14 06:31:00,
2013-05-14 01:46:00,57.5,56.0,30.20,WSW,238,0.0,-999.0,94,-99.99,,,0.00,weatherlink.com 1.10,2013-05-14 06:46:00,
2013-05-14 02:01:00,57.3,56.0,30.21,WSW,238,0.0,-999.0,94,-99.99,,,0.00,weatherlink.com 1.10,2013-05-14 07:01:00,
2013-05-14 02:16:00,57.1,56.0,30.21,WSW,238,0.0,-999.0,95,-99.99,,,0.00,weatherlink.com 1.10,2013-05-14 07:16:00,
2013-05-14 02:31:00,56.9,56.0,30.21,WSW,238,0.0,-999.0,95,-99.99,,,0.00,weatherlink.com 1.10,2013-05-14 07:31:00,
2013-05-14 02:48:00,56.8,55.0,30.20,WSW,238,0.0,-999.0,95,-99.99,,,0.00,weatherlink.com 1.10,2013-05-14 07:48:00,
2013-05-14 03:02:00,56.7,56.0,30.20,WSW,238,0.0,-999.0,96,-99.99,,,0.00,weatherlink.com 1.10,2013-05-14 08:02:00,
2013-05-14 03:17:00,56.6,56.0,30.20,WSW,238,0.0,-999.0,96,-99.99,,,0.00,weatherlink.com 1.10,2013-05-14 08:17:00,
2013-05-14 03:32:00,56.5,55.0,30.20,WSW,238,0.0,-999.0,96,-99.99,,,0.00,weatherlink.com 1.10,2013-05-14 08:32:00,
2013-05-14 03:47:00,56.4,55.0,30.21,WSW,238,0.0,-999.0,96,-99.99,,,0.00,weatherlink.com 1.10,2013-05-14 08:47:00,
2013-05-14 04:02:00,56.1,55.0,30.21,WSW,238,0.0,-999.0,96,-99.99,,,0.00,weatherlink.com 1.10,2013-05-14 09:02:00,
2013-05-14 04:17:00,56.0,55.0,30.21,WSW,238,0.0,-999.0,96,-99.99,,,0.00,weatherlink.com 1.10,2013-05-14 09:17:00,
2013-05-14 04:32:00,55.9,55.0,30.21,WSW,238,0.0,-999.0,96,-99.99,,,0.00,weatherlink.com 1.10,2013-05-14 09:32:00,
2013-05-14 04:47:00,55.7,55.0,30.21,WSW,238,0.0,-999.0,96,-99.99,,,0.00,weatherlink.com 1.10,2013-05-14 09:47:00,
2013-05-14 05:02:00,55.5,54.0,30.21,WSW,238,0.0,-999.0,96,-99.99,,,0.00,weatherlink.com 1.10,2013-05-14 10:02:00,
2013-05-14 05:17:00,55.3,54.0,30.22,WSW,238,0.0,-999.0,96,-99.99,,,0.00,weatherlink.com 1.10,2013-05-14 10:17:00,
2013-05-14 05:32:00,55.1,54.0,30.22,WSW,238,0.0,-999.0,96,-99.99,,,0.00,weatherlink.com 1.10,2013-05-14 10:32:00,
2013-05-14 05:47:00,55.0,54.0,30.22,WSW,238,0.0,-999.0,97,-99.99,,,0.00,weatherlink.com 1.10,2013-05-14 10:47:00,
2013-05-14 06:02:00,54.9,54.0,30.23,WSW,238,0.0,-999.0,97,-99.99,,,0.00,weatherlink.com 1.10,2013-05-14 11:02:00,
2013-05-14 06:17:00,54.8,54.0,30.23,WSW,238,0.0,-999.0,97,-99.99,,,0.00,weatherlink.com 1.10,2013-05-14 11:17:00,
2013-05-14 06:31:00,54.9,54.0,30.24,WSW,238,0.0,-999.0,97,-99.99,,,0.00,weatherlink.com 1.10,2013-05-14 11:31:00,
2013-05-14 06:47:00,55.2,55.0,30.25,WSW,238,0.0,-999.0,98,-99.99,,,0.00,weatherlink.com 1.10,2013-05-14 11:47:00,
2013-05-14 07:02:00,55.7,55.0,30.25,WSW,239,0.0,-999.0,98,-99.99,,,0.00,weatherlink.com 1.10,2013-05-14 12:02:00,
2013-05-14 07:17:00,56.4,56.0,30.25,WSW,239,0.0,-999.0,99,-99.99,,,0.00,weatherlink.com 1.10,2013-05-14 12:17:00,
2013-05-14 07:32:00,57.5,57.0,30.25,WSW,239,0.0,-999.0,99,-99.99,,,0.00,weatherlink.com 1.10,2013-05-14 12:32:00,
2013-05-14 07:47:00,58.6,58.0,30.25,West,279,0.0,-999.0,99,-99.99,,,0.00,weatherlink.com 1.10,2013-05-14 12:47:00,
2013-05-14 08:02:00,59.8,60.0,30.26,WNW,290,0.0,-999.0,99,-99.99,,,0.00,weatherlink.com 1.10,2013-05-14 13:02:00,
2013-05-14 08:18:00,61.1,61.0,30.26,WNW,292,0.0,-999.0,98,-99.99,,,0.00,weatherlink.com 1.10,2013-05-14 13:18:00,
2013-05-14 08:32:00,62.6,61.0,30.27,WNW,296,0.0,-999.0,93,-99.99,,,0.00,weatherlink.com 1.10,2013-05-14 13:32:00,
2013-05-14 08:47:00,64.1,61.0,30.27,WNW,296,0.0,-999.0,90,-99.99,,,0.00,weatherlink.com 1.10,2013-05-14 13:47:00,
2013-05-14 09:04:00,66.2,61.0,30.27,WNW,296,0.0,-999.0,82,-99.99,,,0.00,weatherlink.com 1.10,2013-05-14 14:04:00,
2013-05-14 09:18:00,68.0,61.0,30.27,WNW,296,0.0,-999.0,78,-99.99,,,0.00,weatherlink.com 1.10,2013-05-14 14:18:00,
2013-05-14 09:33:00,69.4,61.0,30.27,WNW,296,0.0,-999.0,75,-99.99,,,0.00,weatherlink.com 1.10,2013-05-14 14:33:00,
2013-05-14 09:48:00,70.5,60.0,30.27,WNW,296,0.0,-999.0,69,-99.99,,,0.00,weatherlink.com 1.10,2013-05-14 14:48:00,
2013-05-14 10:03:00,71.8,61.0,30.27,WNW,300,0.0,-999.0,68,-99.99,,,0.00,weatherlink.com 1.10,2013-05-14 15:03:00,
2013-05-14 10:18:00,73.4,61.0,30.27,South,188,0.0,-999.0,66,-99.99,,,0.00,weatherlink.com 1.10,2013-05-14 15:18:00,
2013-05-14 10:33:00,74.8,58.0,30.28,SE,140,5.0,-999.0,57,-99.99,,,0.00,weatherlink.com 1.10,2013-05-14 15:33:00,
2013-05-14 10:48:00,75.6,59.0,30.28,South,171,4.0,-999.0,56,-99.99,,,0.00,weatherlink.com 1.10,2013-05-14 15:48:00,
2013-05-14 11:03:00,76.1,57.0,30.28,SSW,208,0.0,-999.0,52,-99.99,,,0.00,weatherlink.com 1.10,2013-05-14 16:03:00,
2013-05-14 11:18:00,76.8,59.0,30.27,SSE,162,2.0,-999.0,54,-99.99,,,0.00,weatherlink.com 1.10,2013-05-14 16:18:00,
2013-05-14 11:33:00,77.1,58.0,30.28,SE,132,2.0,-999.0,52,-99.99,,,0.00,weatherlink.com 1.10,2013-05-14 16:33:00,
2013-05-14 11:48:00,77.4,55.0,30.28,SSW,197,5.0,-999.0,46,-99.99,,,0.00,weatherlink.com 1.10,2013-05-14 16:48:00,
2013-05-14 12:03:00,77.3,59.0,30.27,South,184,2.0,-999.0,53,-99.99,,,0.00,weatherlink.com 1.10,2013-05-14 17:03:00,
2013-05-14 12:18:00,77.6,59.0,30.27,SSE,158,0.0,-999.0,53,-99.99,,,0.00,weatherlink.com 1.10,2013-05-14 17:18:00,
2013-05-14 12:33:00,78.1,58.0,30.26,South,191,4.0,-999.0,51,-99.99,,,0.00,weatherlink.com 1.10,2013-05-14 17:33:00,
2013-05-14 12:48:00,78.7,58.0,30.26,South,169,7.0,-999.0,50,-99.99,,,0.00,weatherlink.com 1.10,2013-05-14 17:48:00,
2013-05-14 13:03:00,78.7,58.0,30.25,SSE,161,6.0,-999.0,50,-99.99,,,0.00,weatherlink.com 1.10,2013-05-14 18:03:00,
2013-05-14 13:18:00,79.0,58.0,30.25,West,267,3.0,-999.0,49,-99.99,,,0.00,weatherlink.com 1.10,2013-05-14 18:18:00,
2013-05-14 13:33:00,78.9,59.0,30.23,SSE,149,5.0,-999.0,51,-99.99,,,0.00,weatherlink.com 1.10,2013-05-14 18:33:00,
2013-05-14 13:48:00,78.9,61.0,30.23,SW,229,8.0,-999.0,55,-99.99,,,0.00,weatherlink.com 1.10,2013-05-14 18:48:00,
2013-05-14 14:03:00,78.7,61.0,30.22,WSW,252,2.0,-999.0,54,-99.99,,,0.00,weatherlink.com 1.10,2013-05-14 19:03:00,
2013-05-14 14:18:00,78.4,61.0,30.22,SW,227,11.0,-999.0,55,-99.99,,,0.00,weatherlink.com 1.10,2013-05-14 19:18:00,
2013-05-14 14:33:00,78.1,62.0,30.21,South,181,3.0,-999.0,59,-99.99,,,0.00,weatherlink.com 1.10,2013-05-14 19:33:00,
2013-05-14 14:48:00,78.5,64.0,30.21,South,186,8.0,-999.0,61,-99.99,,,0.00,weatherlink.com 1.10,2013-05-14 19:48:00,
2013-05-14 15:03:00,77.5,61.0,30.20,SSW,207,0.0,-999.0,57,-99.99,,,0.00,weatherlink.com 1.10,2013-05-14 20:03:00,
2013-05-14 15:18:00,77.0,61.0,30.19,SSW,192,6.0,-999.0,59,-99.99,,,0.00,weatherlink.com 1.10,2013-05-14 20:18:00,
2013-05-14 15:33:00,76.9,62.0,30.19,SSE,159,0.0,-999.0,61,-99.99,,,0.00,weatherlink.com 1.10,2013-05-14 20:33:00,
2013-05-14 15:48:00,76.9,62.0,30.19,SSE,161,6.0,-999.0,60,-99.99,,,0.00,weatherlink.com 1.10,2013-05-14 20:48:00,
2013-05-14 16:03:00,77.1,63.0,30.19,South,187,9.0,-999.0,61,-99.99,,,0.00,weatherlink.com 1.10,2013-05-14 21:03:00,
2013-05-14 16:18:00,76.6,61.0,30.18,SSE,166,1.0,-999.0,59,-99.99,,,0.00,weatherlink.com 1.10,2013-05-14 21:18:00,
2013-05-14 16:34:00,76.6,63.0,30.18,SE,138,5.0,-999.0,62,-99.99,,,0.00,weatherlink.com 1.10,2013-05-14 21:34:00,
2013-05-14 16:48:00,76.5,62.0,30.18,SE,142,7.0,-999.0,62,-99.99,,,0.00,weatherlink.com 1.10,2013-05-14 21:48:00,
2013-05-14 17:04:00,76.3,63.0,30.18,SW,227,1.0,-999.0,63,-99.99,,,0.00,weatherlink.com 1.10,2013-05-14 22:04:00,
2013-05-14 17:19:00,75.8,64.0,30.17,South,169,6.0,-999.0,66,-99.99,,,0.00,weatherlink.com 1.10,2013-05-14 22:19:00,
2013-05-14 17:34:00,75.7,64.0,30.17,SSE,163,5.0,-999.0,66,-99.99,,,0.00,weatherlink.com 1.10,2013-05-14 22:34:00,
2013-05-14 17:49:00,75.2,64.0,30.17,SSW,204,3.0,-999.0,68,-99.99,,,0.00,weatherlink.com 1.10,2013-05-14 22:49:00,
2013-05-14 18:04:00,74.9,65.0,30.17,SSW,194,7.0,-999.0,70,-99.99,,,0.00,weatherlink.com 1.10,2013-05-14 23:04:00,
2013-05-14 18:19:00,74.5,65.0,30.17,SE,146,0.0,-999.0,72,-99.99,,,0.00,weatherlink.com 1.10,2013-05-14 23:19:00,
2013-05-14 18:34:00,74.1,64.0,30.16,SSE,167,8.0,-999.0,71,-99.99,,,0.00,weatherlink.com 1.10,2013-05-14 23:34:00,
2013-05-14 18:49:00,73.8,65.0,30.16,SSE,155,0.0,-999.0,74,-99.99,,,0.00,weatherlink.com 1.10,2013-05-14 23:49:00,
2013-05-14 19:04:00,73.4,65.0,30.16,South,171,0.0,-999.0,75,-99.99,,,0.00,weatherlink.com 1.10,2013-05-15 00:04:00,
2013-05-14 19:19:00,73.0,65.0,30.16,South,188,0.0,-999.0,75,-99.99,,,0.00,weatherlink.com 1.10,2013-05-15 00:19:00,
2013-05-14 19:34:00,72.6,64.0,30.16,SW,229,6.0,-999.0,74,-99.99,,,0.00,weatherlink.com 1.10,2013-05-15 00:34:00,
2013-05-14 19:49:00,72.4,64.0,30.16,SSW,212,5.0,-999.0,75,-99.99,,,0.00,weatherlink.com 1.10,2013-05-15 00:49:00,
2013-05-14 20:04:00,72.2,65.0,30.17,SW,221,4.0,-999.0,77,-99.99,,,0.00,weatherlink.com 1.10,2013-05-15 01:04:00,
2013-05-14 20:19:00,71.9,65.0,30.17,SSE,165,0.0,-999.0,78,-99.99,,,0.00,weatherlink.com 1.10,2013-05-15 01:19:00,
2013-05-14 20:35:00,71.7,65.0,30.18,SSW,200,4.0,-999.0,78,-99.99,,,0.00,weatherlink.com 1.10,2013-05-15 01:35:00,
2013-05-14 20:49:00,71.5,65.0,30.17,South,191,0.0,-999.0,80,-99.99,,,0.00,weatherlink.com 1.10,2013-05-15 01:49:00,
2013-05-14 21:04:00,71.3,65.0,30.18,SSW,199,5.0,-999.0,79,-99.99,,,0.00,weatherlink.com 1.10,2013-05-15 02:04:00,
2013-05-14 21:19:00,71.3,64.0,30.18,SW,232,4.0,-999.0,78,-99.99,,,0.00,weatherlink.com 1.10,2013-05-15 02:19:00,
2013-05-14 21:34:00,71.3,64.0,30.18,SSW,207,0.0,-999.0,77,-99.99,,,0.00,weatherlink.com 1.10,2013-05-15 02:34:00,
2013-05-14 21:49:00,71.3,63.0,30.18,SSW,202,0.0,-999.0,75,-99.99,,,0.00,weatherlink.com 1.10,2013-05-15 02:49:00,
2013-05-14 22:04:00,71.1,63.0,30.19,SSW,194,2.0,-999.0,76,-99.99,,,0.00,weatherlink.com 1.10,2013-05-15 03:04:00,
2013-05-14 22:19:00,70.9,63.0,30.18,SSW,202,1.0,-999.0,77,-99.99,,,0.00,weatherlink.com 1.10,2013-05-15 03:19:00,
2013-05-14 22:34:00,70.8,63.0,30.18,South,172,2.0,-999.0,77,-99.99,,,0.00,weatherlink.com 1.10,2013-05-15 03:34:00,
2013-05-14 22:49:00,70.7,63.0,30.18,SSW,200,0.0,-999.0,76,-99.99,,,0.00,weatherlink.com 1.10,2013-05-15 03:49:00,
2013-05-14 23:04:00,70.8,63.0,30.18,WSW,254,2.0,-999.0,77,-99.99,,,0.00,weatherlink.com 1.10,2013-05-15 04:04:00,
2013-05-14 23:19:00,70.6,63.0,30.18,WSW,257,0.0,-999.0,76,-99.99,,,0.00,weatherlink.com 1.10,2013-05-15 04:19:00,
2013-05-14 23:35:00,70.4,63.0,30.17,SW,232,1.0,-999.0,78,-99.99,,,0.00,weatherlink.com 1.10,2013-05-15 04:35:00,
2013-05-14 23:49:00,70.3,63.0,30.17,WSW,245,2.0,-999.0,78,-99.99,,,0.00,weatherlink.com 1.10,2013-05-15 04:49:00,